Location: Unspecified
(0.0000°N, 0.0000°E)
Time: 20:46:09
(UTC+02:00)

HST - Visible Passes

Search period start: 02 September 2014 00:00
Search period end: 12 September 2014 00:00
Orbit: 547 x 552 km, 28.5° (Epoch: 01 September)

Date Brightness Start Highest point End Pass type
(mag) Time Alt. Az. Time Alt. Az. Time Alt. Az.
02 Sep 3.5 06:00:21 12° NNE 06:01:04 12° NNE 06:02:48 10° NE visible
02 Sep 3.4 21:18:03 10° WNW 21:20:38 16° NNW 21:23:12 10° N visible
03 Sep 3.3 05:54:34 17° NE 05:54:34 17° NE 05:57:03 10° ENE visible
03 Sep 0.8 07:31:28 10° WNW 07:35:40 77° SSW 07:39:52 10° SE visible
03 Sep 3.6 21:12:36 10° NW 21:13:47 11° NNW 21:14:58 10° N visible
04 Sep 3.2 05:48:48 20° ENE 05:48:48 20° ENE 05:50:48 10° E visible
04 Sep 1.1 07:24:40 10° WNW 07:28:44 49° SSW 07:32:48 10° SE visible
05 Sep 3.5 05:42:59 18° E 05:42:59 18° E 05:44:18 10° E visible
05 Sep 1.7 07:18:36 13° W 07:21:48 33° SSW 07:25:36 10° SE visible
06 Sep 3.8 05:37:07 13° ESE 05:37:07 13° ESE 05:37:36 10° ESE visible
06 Sep 2.2 07:12:43 15° WSW 07:14:54 23° SSW 07:18:14 10° SSE visible
07 Sep 2.6 07:06:45 14° SW 07:08:01 16° SSW 07:10:37 10° S visible
08 Sep 3.0 07:00:41 11° SSW 07:01:09 11° SSW 07:02:23 10° S visible
